Total_Precipitation_Accumulation
0.03 0.04 0.11 0.07 0.03 0.05 0.06 0.06 0.06 0.06 0.05 0.05 0.04 0.03 0.02 0.02 0.01 0.02 0.02 0.02 0.03 0.04 0.05 0.07 0.08 0.10 0.10 0.08 0.07 0.07 0.06 0.05 0.08 0.11 0.13 0.14 0.16 0.27 0.43 0.47 0.52 0.44 0.34
0.02 0.03 0.08 0.06 0.04 0.05 0.07 0.07 0.07 0.07 0.06 0.05 0.05 0.04 0.03 0.03 0.02 0.02 0.03 0.03 0.03 0.04 0.04 0.05 0.07 0.06 0.06 0.05 0.04 0.03 0.04 0.06 0.09 0.15 0.18 0.18 0.20 0.27 0.35 0.36 0.51 0.38 0.27
0.03 0.03 0.05 0.07 0.06 0.06 0.06 0.07 0.08 0.09 0.08 0.07 0.07 0.06 0.06 0.05 0.03 0.03 0.03 0.03 0.03 0.03 0.03 0.03 0.04 0.04 0.04 0.03 0.02 0.03 0.04 0.07 0.14 0.21 0.32 0.29 0.21 0.30 0.35 0.36 0.38 0.32 0.26
0.06 0.03 0.02 0.06 0.07 0.06 0.06 0.06 0.07 0.08 0.08 0.08 0.11 0.11 0.09 0.05 0.04 0.03 0.03 0.03 0.03 0.03 0.03 0.03 0.03 0.02 0.02 0.02 0.03 0.03 0.05 0.09 0.17 0.27 0.48 0.35 0.21 0.25 0.30 0.30 0.28 0.29 0.24
0.06 0.04 0.05 0.06 0.07 0.07 0.07 0.07 0.09 0.09 0.08 0.10 0.15 0.15 0.12 0.07 0.07 0.07 0.05 0.03 0.04 0.04 0.03 0.02 0.03 0.02 0.02 0.02 0.03 0.04 0.08 0.10 0.15 0.26 0.32 0.36 0.42 0.26 0.25 0.28 0.26 0.28 0.22
0.08 0.06 0.08 0.08 0.08 0.07 0.08 0.08 0.12 0.15 0.12 0.13 0.14 0.13 0.13 0.10 0.13 0.11 0.06 0.05 0.05 0.05 0.04 0.03 0.03 0.03 0.02 0.02 0.04 0.06 0.08 0.13 0.16 0.21 0.23 0.24 0.35 0.31 0.27 0.39 0.43 0.40 0.29
0.10 0.07 0.09 0.11 0.10 0.08 0.08 0.08 0.10 0.13 0.14 0.16 0.16 0.12 0.09 0.07 0.07 0.07 0.06 0.06 0.05 0.05 0.05 0.04 0.04 0.04 0.04 0.04 0.04 0.06 0.10 0.15 0.17 0.19 0.21 0.28 0.37 0.28 0.36 0.58 0.71 0.64 0.50
0.12 0.10 0.12 0.15 0.13 0.12 0.10 0.09 0.09 0.09 0.10 0.10 0.11 0.09 0.06 0.06 0.08 0.10 0.08 0.06 0.06 0.06 0.06 0.06 0.06 0.06 0.06 0.05 0.06 0.08 0.11 0.13 0.12 0.16 0.20 0.29 0.27 0.25 0.49 0.71 0.85 0.84 0.76
0.14 0.12 0.14 0.16 0.15 0.15 0.16 0.13 0.12 0.12 0.12 0.13 0.13 0.11 0.09 0.09 0.10 0.12 0.14 0.13 0.13 0.13 0.13 0.12 0.09 0.08 0.09 0.09 0.08 0.09 0.11 0.15 0.18 0.21 0.24 0.31 0.27 0.42 0.80 0.92 0.91 0.94 0.91
0.21 0.20 0.18 0.18 0.19 0.16 0.15 0.16 0.16 0.16 0.15 0.14 0.14 0.12 0.13 0.12 0.14 0.17 0.18 0.19 0.22 0.26 0.26 0.21 0.18 0.16 0.15 0.13 0.12 0.13 0.14 0.15 0.16 0.20 0.30 0.29 0.32 0.59 0.96 1.10 1.11 1.07 1.00
0.27 0.26 0.24 0.21 0.22 0.22 0.18 0.18 0.21 0.22 0.21 0.19 0.22 0.22 0.21 0.22 0.29 0.36 0.37 0.45 0.45 0.48 0.49 0.45 0.41 0.40 0.36 0.24 0.26 0.31 0.23 0.14 0.16 0.20 0.26 0.25 0.40 0.67 0.99 1.13 1.15 1.15 1.07
0.37 0.34 0.32 0.32 0.30 0.29 0.27 0.35 0.39 0.37 0.39 0.34 0.47 0.54 0.54 0.63 0.60 0.42 0.53 0.79 0.92 1.01 0.97 0.94 0.92 0.77 0.63 0.52 0.84 1.02 0.37 0.25 0.25 0.27 0.34 0.39 0.64 0.93 1.22 1.19 1.12 1.13 1.05
0.46 0.42 0.44 0.43 0.43 0.41 0.49 0.46 0.49 0.59 0.71 0.67 0.70 0.78 0.83 0.84 0.70 0.59 0.71 0.96 1.23 1.34 1.22 1.47 1.51 1.10 1.12 1.23 1.21 1.12 0.64 0.60 0.58 0.58 0.62 0.80 1.03 1.31 1.71 1.55 1.27 1.12 1.03
0.60 0.53 0.69 0.59 0.63 0.73 0.79 0.59 0.59 0.67 0.76 0.83 0.99 1.03 1.09 1.17 1.08 1.04 1.07 1.14 1.35 1.51 1.71 1.78 1.87 1.71 1.66 1.62 1.55 1.37 1.15 1.12 1.02 1.25 1.27 1.21 1.26 1.45 1.91 1.90 1.52 1.27 1.09
1.01 0.86 0.82 0.84 0.95 1.05 0.93 0.88 0.83 0.92 0.97 1.01 1.07 1.20 1.24 1.43 1.50 1.51 1.41 1.38 1.39 1.55 1.71 1.82 1.89 2.18 2.29 1.98 1.63 1.50 1.46 1.51 1.39 1.46 1.40 1.36 1.28 1.36 1.66 1.89 1.77 1.58 1.33
1.31 1.26 1.11 1.11 1.25 1.35 1.36 1.40 1.38 1.25 1.25 1.25 1.21 1.23 1.32 1.49 1.65 1.74 1.64 1.59 1.50 1.53 1.67 1.86 2.04 2.43 2.42 2.26 1.82 1.65 1.60 1.54 1.42 1.37 1.43 1.59 1.44 1.31 1.36 1.57 1.76 1.75 1.62
1.53 1.52 1.51 1.59 1.78 1.86 1.82 1.83 1.75 1.61 1.54 1.49 1.49 1.51 1.49 1.53 1.65 1.65 1.49 1.43 1.50 1.65 1.79 1.84 2.04 2.33 2.03 2.00 1.75 1.68 1.53 1.34 1.21 1.19 1.34 1.48 1.36 1.30 1.36 1.45 1.55 1.60 1.65
1.73 1.82 2.02 2.12 2.17 2.14 2.17 2.19 2.09 1.95 1.81 1.70 1.65 1.67 1.58 1.52 1.54 1.64 1.48 1.39 1.72 1.85 1.91 2.04 2.18 2.19 2.08 2.02 1.82 1.59 1.43 1.33 1.09 1.02 1.03 1.08 1.18 1.04 1.21 1.38 1.41 1.44 1.57
2.17 2.39 2.63 2.69 2.62 2.47 2.46 2.40 2.31 2.15 1.96 1.79 1.66 1.62 1.48 1.48 1.57 1.79 1.71 1.78 2.04 2.11 2.07 2.01 2.25 2.23 2.09 2.04 1.87 1.58 1.28 1.15 0.99 0.88 0.80 0.74 0.83 0.89 0.93 1.05 1.18 1.26 1.55
2.46 2.73 2.74 2.80 3.03 2.92 2.77 2.57 2.31 1.96 1.74 1.71 1.67 1.52 1.51 1.58 1.70 1.95 1.81 1.83 2.02 2.10 2.04 2.00 1.97 2.03 1.85 1.85 1.77 1.47 1.14 0.87 0.82 0.70 0.59 0.58 0.60 0.61 0.70 0.85 1.04 0.93 1.19
2.35 2.58 2.82 3.01 3.10 2.92 2.67 2.41 2.19 2.00 1.91 1.72 1.63 1.56 1.52 1.51 1.59 1.85 1.76 1.86 1.91 1.86 1.83 1.90 1.89 1.74 1.48 1.71 1.74 1.32 0.92 0.73 0.69 0.51 0.49 0.49 0.47 0.50 0.62 0.79 0.95 0.94 0.88
2.11 2.46 2.69 2.95 2.98 2.73 2.44 2.24 2.14 2.08 1.82 1.58 1.57 1.55 1.57 1.65 1.64 1.72 1.75 1.75 1.78 1.77 1.66 1.64 1.72 1.56 1.32 1.50 1.58 1.49 0.96 0.73 0.61 0.47 0.53 0.59 0.60 0.65 0.67 0.72 0.85 0.97 0.98
1.81 2.00 2.15 2.23 2.20 2.05 2.03 2.05 2.04 2.03 1.79 1.72 1.79 1.83 1.81 1.83 1.81 1.80 1.73 1.61 1.49 1.45 1.37 1.39 1.49 1.47 1.32 1.33 1.52 1.68 1.30 0.92 0.81 0.64 0.63 0.65 0.74 0.81 0.77 0.79 0.82 0.94 1.03
1.65 1.82 1.94 1.90 1.75 1.62 1.66 1.83 1.89 1.85 1.80 1.94 2.17 2.09 1.87 1.72 1.59 1.43 1.31 1.28 1.24 1.23 1.13 1.08 1.19 1.23 1.16 1.11 1.24 1.40 1.47 1.42 1.30 0.84 0.61 0.58 0.69 0.79 0.86 0.81 0.73 0.81 0.98
1.38 1.50 1.63 1.68 1.58 1.52 1.53 1.59 1.70 1.73 1.71 1.71 1.71 1.67 1.56 1.39 1.21 1.04 0.95 0.95 0.94 0.94 0.89 0.86 0.88 0.90 0.94 0.95 1.08 1.24 1.34 1.39 1.39 1.25 0.87 0.82 0.83 0.77 0.80 0.80 0.82 0.83 0.87
1.10 1.11 1.09 1.18 1.24 1.27 1.30 1.33 1.37 1.34 1.29 1.22 1.14 1.12 1.06 0.97 0.80 0.69 0.65 0.68 0.74 0.79 0.77 0.76 0.78 0.77 0.84 0.95 0.98 1.09 1.22 1.22 1.22 1.30 1.09 0.97 0.92 0.82 0.82 0.86 0.86 0.92 0.91